LogoCoinalyze
    Ad-Free Version Hauptseite Märkte Finanzierungsraten
    Futures-Daten
    • Aggregierte Daten (Coins)
    • Einzelne Charts
    • Globale Charts
    Preisalarme
    TA
    Bitcoin Ethereum BNB Ripple Tron ZCash Dogecoin Monero UNUS SED LEO Chainlink Cardano Stellar Lumens Bitcoin Cash Litecoin Hedera Cronos Polkadot Ethereum Classic Algorand Quant Cosmos VeChain Dash Bitcoin SV BitTorrent Terra Decred Tezos Iota The Graph THETA Decentraland NEO Chiliz MultiversX Golem Basic Attention Token Horizen Qtum 0x DigiByte Beam RIF Token FTX Token Holo FUNToken Zilliqa Ontology aelf Nano Enjin Coin Ravencoin Mask Network Siacoin Verge Status WINk Waves IoTeX iExec RLC Power Ledger Steem Kyber Network Crystal Lisk Ark Ardor IOST WOO Network WAX Icon Storj Wanchain Loopring Bitcoin Diamond AdEx Bitcoin Gold Augur OmiseGO NEM MonaCoin BitShares Ren Komodo V Systems Nuls Mithril SOLVE Maker EOS Aion Nebulas HedgeTrade Bread Fetch.ai TomoChain Polygon Fantom Waltonchain GXChain Bytom Metaverse ETP MaidSafeCoin QASH
    Bestellen nach:
    Mehr
    • API
    • Kerzenformationen
    • Spenden
    • Kontakt
    • Sitemap
    • Privacy Policy
    • Disclaimer
    • Theme:
    Deutsch
    • English
    • Français
    • Русский
    • Türkçe
    • Nederlands
    • Português (BR)
    • Español
    • 한국어
    • 简体中文
    • 日本語
     
    Anmelden / Registrieren
    Markets/ Pepe/ PEPE zu USD/ PEPEUSD Kraken
    Trades
    WL
    Chat
    Stat
    Neuigkeiten
    ⦷
    AAA
    0.000003405 4027761.00000000 11:35:15
    0.000003406 10000000.00000000 11:35:02
    0.000003403 16779677.97745000 11:34:59
    0.000003403 7638429.06000000 11:34:59
    0.000003403 39234300.00000000 11:34:59
    0.000003404 39234300.00000000 11:34:59
    0.000003403 39234300.00000000 11:33:55
    0.000003397 417720.00000000 11:32:43
    0.000003394 837946.00000000 11:31:38
    0.000003395 1536103.00000000 11:31:01
    0.000003395 1149675.89000000 11:29:56
    0.000003394 3690944.88187000 11:29:55
    0.000003396 765700.00000000 11:29:54
    0.000003395 9234300.00000000 11:29:54
    0.000003395 10000000.00000000 11:29:52
    0.000003393 4614441.49000000 11:28:18
    0.000003386 17470346.86000000 11:26:51
    0.000003385 39234300.00000000 11:26:51
    0.000003383 868795.00000000 11:26:37
    0.000003384 8056578.00000000 11:26:31
    0.000003388 697139.00000000 11:25:56
    0.000003389 44950646.94009000 11:25:00
    0.000003385 10000000.00000000 11:23:46
    0.000003391 612127.00000000 11:22:09
    0.000003395 10000000.00000000 11:21:20
    0.000003395 10000000.00000000 11:21:18
    0.000003394 11011639.00000000 11:21:17
    0.000003395 10000000.00000000 11:20:46
    0.000003395 10000000.00000000 11:20:44
    0.000003395 10000000.00000000 11:20:42
    0.000003394 1971185.00000000 11:20:40
    0.000003396 1422526.50000000 11:20:40
    0.000003395 10000000.00000000 11:19:50
    0.000003395 10000000.00000000 11:19:46
    0.000003393 2111949.00000000 11:19:43
    0.000003395 10000000.00000000 11:19:30
    0.000003395 10000000.00000000 11:19:28
    0.000003395 10000000.00000000 11:19:26
    0.000003395 10000000.00000000 11:19:24
    0.000003394 8056578.00000000 11:18:53
    0.000003395 10000000.00000000 11:18:24
    0.000003395 10000000.00000000 11:18:22
    0.000003394 7039036.00000000 11:18:22
    0.000003395 10000000.00000000 11:18:20
    0.000003394 15095614.61000000 11:18:20
    0.000003395 10000000.00000000 11:18:16
    0.000003402 582292.00000000 11:15:19
    0.000003401 582292.00000000 11:15:15
    0.000003395 10000000.00000000 11:14:20
    0.000003394 27736801.53999000 11:14:15
    0.000003395 10000000.00000000 11:14:13
    0.000003395 10000000.00000000 11:14:10
    0.000003395 10000000.00000000 11:14:07
    0.000003397 311683.34000000 11:13:07
    0.000003395 10000000.00000000 11:12:41
    0.000003395 10000000.00000000 11:12:38
    0.000003395 10000000.00000000 11:12:35
    0.000003394 5000645.00000000 11:12:22
    0.000003395 39234300.00000000 11:12:22
    0.000003403 1473187.00000000 11:10:15
    0.000003401 39234300.00000000 11:09:57
    0.000003399 129189841.62208000 11:09:56
    0.000003399 44313921.63105000 11:09:56
    0.000003399 39234300.00000000 11:09:56
    0.000003397 978409.00000000 11:09:52
    0.000003398 49589022.95000000 11:09:50
    0.000003394 1524596.00000000 11:07:49
    0.000003391 1000000.00000000 11:06:53
    0.000003393 3412969.28000000 11:05:48
    0.000003393 5851375.06999000 11:05:45
    0.000003393 23958479.83000000 11:05:45
    0.000003394 39234300.00000000 11:05:45
    0.000003393 10752829.95000000 11:05:19
    0.000003393 39234300.00000000 11:05:19
    0.000003394 39234300.00000000 11:05:19
    0.000003398 8549822.64842000 11:04:10
    0.000003402 624808.93000000 11:03:20
    0.000003400 57416611.88234000 11:02:34
    0.000003399 1202403.00000000 11:02:22
    0.000003399 136286201.02214000 11:01:21
    0.000003399 96866414.52875000 11:01:03
    0.000003399 39234300.00000000 11:01:03
    0.000003403 3800087.53497000 11:00:01
    0.000003404 8006711.46503000 11:00:01
    0.000003404 39234300.00000000 11:00:01
    0.000003405 39234300.00000000 11:00:01
    0.000003407 1554849.00000000 10:59:39
    0.000003407 610243.61000000 10:59:11
    0.000003405 10000000.00000000 10:58:17
    0.000003399 582411.00000000 10:57:29
    0.000003394 83460125.00000000 10:56:37
    0.000003394 5868500.00000000 10:56:32
    0.000003395 10000000.00000000 10:56:01
    0.000003395 45246109.93813000 10:55:34
    0.000003391 46506862.91595000 10:54:02
    0.000003389 8130081.30000000 10:53:34
    0.000003388 2942507.37000000 10:53:29
    0.000003389 39234300.00000000 10:53:07
    0.000003389 221347269.47442001 10:53:07
    0.000003389 41748778.24809000 10:53:07
    Abmelden
    AAA
    Hilfe
    🙂 🤣 😎 🤗 😛 😉 😜 🤑 🤔 😑 😴 😕 🙃 😲 😇 🙁 😢 😬 😟 😠 🕺 🏃 💪 ✌ 👌 👍 👎 👏 👋 🤝 🍺 🍻 🐋 🐟 🦈 🗽 🚄 ✈ 🛑 🚀 🏦 🌚 ⭐ 🌞 ⚡ 🏆 💰 💲 🔨 ❓ ❗ 💯 🔶 🏁
    ☺
    Anmelden oder Registrieren zum Chatten
    24 Stunden
    Veränderung
    -2.77%
    Volumen
    285,007,520,179
    Hoch
    0.000003547
    Tief
    0.000003374
    7 Tage
    Veränderung
    -10.70%
    Volumen
    3,585,497,412,837
    Hoch
    0.000004012
    Tief
    0.000003363
    30 Tage
    Veränderung
    +17.25%
    Volumen
    14,801,154,975,536
    Hoch
    0.000004550
    Tief
    0.000002530
    Pepe price rallies 25% as whale demand and futures interest surge
    Key takeaways Pepe has gained 25% this week, including a combined 22% advance over the previous two days. Seven whale transactions worth more than $1 million each occurred Thursday, the highest...
    coinjournal.net
    Aug 21, 2026 08:41
    PEPE Supply on Exchanges Just Took a Massive Hit – What’s Next?
    A drop in PEPE exchange balances has added to bullish expectations despite muted trader interest.
    cryptopotato.com
    Aug 6, 2026 20:02
    PEPE Exchange Outflows Hit Nearly 2-Year High as Whales Accumulate
    Pepe (PEPE) recorded its largest single-day exchange outflow since November 2024, with 4.54 trillion tokens leaving trading platforms, signaling that holders are moving supply away from immediate...
    beincrypto.com
    Aug 6, 2026 04:57
    Meme Coin Based on White House Shooter Conspiracy Rallies 320%
    $HENRY surged 300% after a 2023 Pepe tweet appeared to name the White House shooter, fueling a viral time-travel meme. The post Meme Coin Based on White House Shooter Conspiracy Rallies 320%...
    beincrypto.com
    Apr 27, 2026 16:11
    PEPE surges 4% as market sentiment improves, eyes Key resistance breakout
    Key takeaways Pepe extends gains on Wednesday, stretching its rally from the 50-day EMA. Derivatives data show heightened retail activity as risk-on sentiment returns to the market. Pepe (PEPE) is...
    coinjournal.net
    Apr 22, 2026 11:44
    Why The PEPE Price Could Stage A 55X Rally To Reach New $0.0001 ATH
    The PEPE price has now started to edge back into bullish conversations after the recent inflows into the crypto market. The last time PEPE’s weekly chart printed the kind of structure now...
    newsbtc.com
    Apr 21, 2026 15:30
    Pepe (PEPE) surges 9%, drawing interest from whales
    Key takeaways PEPE is up 9% in the last 24 hours, making it one of the best performers among the top 50 cryptocurrencies by market cap. The rally comes amid renewed interest from whales and retail...
    coinjournal.net
    Apr 16, 2026 07:40
    Murad Says SPX6900 (SPX) Is Primed for a Rally — Is He Right This Time?
    Crypto influencer Murad Mahmudov claims SPX6900 (SPX) is stabilizing at the same market cap level where Dogecoin (DOGE) and Pepe (PEPE) consolidated before their explosive rallies. The...
    beincrypto.com
    Apr 5, 2026 21:36
    The Shiba Inu Of This Cycle: Analyst Shares Why It Is Better To Buy PEPE Now
    In the bull market cycle of 2021-2022, the Shiba Inu meme coin made waves in a way that changed the face of meme coins forever. This came after Dogecoin’s initial 36,000% rally, and Shiba Inu...
    newsbtc.com
    Apr 4, 2026 07:30
    PEPE Explodes by 18% Amid Altcoin Rally, BTC Tapped $74K: Market Watch
    The frog-themed meme coin is today's biggest gainer, followed by TAO, DOT, and BONK.
    cryptopotato.com
    Mar 16, 2026 10:56
    Should PEPE traders brace for volatility as short squeeze potential builds?
    The memecoin market has seen its collective market capitalization drop by 48% over the past year, and 6.9% over the past month, according to CoinMarketCap. According to Glassnode, the memecoin...
    ambcrypto.com
    Mar 7, 2026 18:00
    Geben Sie einfach das Kommando im Chat ein. Ersetzen Sie dabei nick1 durch den jeweiligen Nick.
    • /ignore nick1 Einen Chat-User ignorieren
    • /unignore nick1 Einen Chat-User nicht mehr ignorieren
    • /ignorelist Ignorierte Chat-User anzeigen